{"data":{"norad_id":59723,"intl_designator":"2024-088R","name":"STARLINK-31766","alt_names":[],"object_type":"PAYLOAD","status":"ACTIVE","operator":null,"country":"US","launch_date":"2024-05-10","launch_site_code":"AFWTR","launch_vehicle":null,"mission":null,"orbit_class":"UNKNOWN","rcs_meters":null,"size_class":null,"mass_kg":null,"dimensions":null,"purposes":["comms"],"wikipedia_slug":null,"has_3d_model":false,"image_url":null,"decayed_at":null,"tle_current":{"epoch":"2026-05-24T23:51:08.316000Z","epoch_age_seconds":75924,"freshness":"FRESH","line1":"1 59723U 24088R   26144.99384625  .00000414  00000+0  26124-4 0  9998","line2":"2 59723  53.1606 145.5581 0001242  85.9535 274.1608 15.30192413115365","mean_motion":15.30192413,"eccentricity":0.0001242,"inclination_deg":53.1606,"raan_deg":145.5581,"arg_perigee_deg":85.9535,"mean_anomaly_deg":274.1608,"bstar":2.6124e-5,"rev_number":11536,"period_min":94.105812299567,"perigee_km":474.38653378677,"apogee_km":476.08891206794,"semimajor_km":6853.3747229274,"source":"CELESTRAK","updated_at":"2026-05-25T13:38:19.049034Z"}}}